[[{"header":{"parameterUnit":"m.s-1","parameterCategory":1,"la1":30.2991,"la2":30.254,"lo1":-89.0895,"lo2":-89.0444,"dy":0.0017,"dx":0.0017,"nx":28,"ny":28,"refTime":"2023-08-22T21:00:00:Z","depth":0,"parameterNumber":2,"parameterNumberName":"U-component_of_WINDS"},"data":[0,0,0,0,0,0,0,0,0,0,0,0,0,0,0,0,0,0,0,0,0,0,0,0,0,0,0,0,0,0,0,0,0,0,0,0,0,0,0,0,0,0,0,0,0,0,0,0,0,0,0,0,0,0,0,0,0,0,-2.2911,-2.291,0,-2.2794,-2.2793,-2.2792,-2.2678,-2.2677,-2.2675,-2.2674,-2.2556,-2.2554,-2.2553,0,0,0,0,0,0,0,0,0,0,0,0,0,-2.3041,-2.3039,-2.2911,-2.291,-2.2908,-2.2794,-2.2793,-2.2791,-2.2678,-2.2676,-2.2675,-2.2673,-2.2557,-2.2555,-2.2552,0,0,0,0,0,0,0,0,0,0,0,0,0,-2.296,-2.3038,-2.2912,-2.2838,-2.283,-2.2795,-2.2793,-2.2791,-2.2679,-2.2676,-2.2674,-2.2672,-2.2557,-2.2555,-2.2552,-2.258,0,0,-2.2544,-2.2543,0,0,0,0,0,0,0,0,-2.2965,-2.2956,-2.285,-2.2843,-2.2834,-2.2748,-2.2795,-2.272,-2.2679,-2.2736,-2.2674,-2.2671,-2.2622,-2.2614,-2.2597,-2.2574,-2.2569,-2.2544,-2.2542,-2.2541,-2.254,0,0,0,0,0,0,0,-2.2971,-2.296,-2.2865,-2.2849,-2.2839,-2.2812,-2.2799,-2.278,-2.2693,-2.2731,-2.2723,-2.271,-2.2617,-2.26,-2.2593,-2.2568,-2.2544,-2.2542,-2.254,-2.2539,-2.2566,-2.2568,0,0,0,0,0,0,-2.2987,-2.2965,-2.2869,-2.2861,-2.2896,-2.2812,-2.2796,-2.2778,-2.2693,-2.2678,-2.2712,-2.2705,-2.2605,-2.2596,-2.2589,-2.2617,-2.2541,-2.2539,-2.2537,-2.2563,-2.2566,-2.2569,0,0,0,0,0,0,-2.299,-2.2979,-2.2873,-2.2911,-2.2895,-2.2812,-2.2793,-2.2777,-2.2759,-2.2679,-2.2663,-2.271,-2.2603,-2.2592,-2.2583,-2.2612,-2.2537,-2.2535,-2.2561,-2.2564,-2.2567,-2.2675,0,0,0,0,0,0,-2.2994,-2.2981,-2.299,-2.2912,-2.2894,-2.2869,-2.2794,-2.2776,-2.2755,-2.2745,-2.2672,-2.2658,-2.2601,-2.2588,-2.2581,-2.2607,-2.2533,-2.2558,-2.2562,-2.2566,-2.2668,-2.2681,-2.2693,0,0,0,0,0,-2.2999,-2.3025,-2.2991,-2.298,-2.2903,-2.2871,-2.2861,-2.2793,-2.2758,-2.2766,-2.2715,-2.2661,-2.261,-2.2588,-2.2579,-2.2605,-2.2556,-2.2561,-2.2566,-2.2663,-2.2679,-2.2692,0,0,0,0,0,0,-2.3108,-2.3013,-2.2975,-2.2975,-2.2932,-2.2852,-2.2861,-2.2812,-2.2779,-2.2771,-2.2689,-2.2674,-2.2675,-2.2638,-2.2616,-2.2629,-2.2575,-2.2579,-2.2652,-2.2667,-2.2679,-2.2688,-2.2531,0,0,0,0,0,-2.3132,-2.3113,-2.3032,-2.304,-2.3021,-2.2945,-2.2928,-2.288,-2.2833,-2.2814,-2.2762,-2.2719,-2.2693,-2.2678,-2.2649,-2.2663,-2.2647,-2.2676,-2.2688,-2.2699,-2.2703,-2.271,-2.2723,-2.2586,-2.2585,-2.2585,0,0,-2.3181,-2.3127,-2.312,-2.3061,-2.3021,-2.3006,-2.293,-2.2916,-2.2903,-2.2812,-2.2801,-2.2761,-2.2708,-2.2711,-2.271,-2.2681,-2.2738,-2.2705,-2.2714,-2.2713,-2.2717,-2.273,-2.2742,-2.2589,-2.2588,-2.2588,0,0,-2.3263,-2.322,-2.3223,-2.3186,-2.3128,-2.3078,-2.3079,-2.3007,-2.2977,-2.2965,-2.2897,-2.2881,-2.2838,-2.2804,-2.2781,-2.2853,-2.2803,-2.2846,-2.291,-2.2918,-2.2929,-2.2938,-2.2966,-2.2977,-2.2851,-2.2851,-2.2851,0,-2.3332,-2.3304,-2.3231,-2.3221,-2.3198,-2.3115,-2.3119,-2.3087,-2.3023,-2.301,-2.2978,-2.2925,-2.2882,-2.2878,-2.2896,-2.2879,-2.288,-2.2854,-2.2933,-2.2942,-2.2949,-2.2975,-2.2986,-2.2857,-2.2856,-2.2856,-2.2855,0,-2.3393,-2.3375,-2.3385,-2.3326,-2.3303,-2.3301,-2.3229,-2.3216,-2.3171,-2.3125,-2.3115,-2.3062,-2.3022,-2.3018,-2.2973,-2.3008,-2.2992,-2.2948,-2.2893,-2.2969,-2.2992,-2.3001,-2.2865,-2.2863,-2.2861,-2.286,0,0,-2.3538,-2.3441,-2.3446,-2.3419,-2.335,-2.3336,-2.333,-2.3292,-2.3283,-2.3243,-2.3238,-2.3205,-2.3165,-2.3139,-2.309,-2.3096,-2.316,-2.3052,-2.3049,-2.3076,-2.3198,-2.3233,-2.3245,-2.3126,-2.3128,-2.3129,-2.3203,0,-2.361,-2.3594,-2.353,-2.3534,-2.3518,-2.344,-2.3436,-2.3395,-2.3353,-2.3334,-2.3287,-2.3266,-2.3213,-2.3197,-2.3201,-2.3152,-2.3184,-2.3145,-2.3123,-2.3123,-2.314,-2.3256,-2.3292,-2.3364,-2.3212,-2.3213,-2.3214,0,-2.369,-2.3656,-2.3659,-2.3593,-2.3584,-2.3581,-2.3542,-2.3525,-2.3477,-2.3446,-2.3419,-2.3364,-2.3357,-2.3305,-2.3295,-2.327,-2.3257,-2.3233,-2.3234,-2.323,-2.3174,-2.3257,-2.3385,-2.3397,-2.3227,-2.3226,-2.3225,0,-2.3799,-2.3753,-2.3749,-2.3729,-2.3651,-2.3652,-2.362,-2.357,-2.3552,-2.3518,-2.3506,-2.3473,-2.3455,-2.3431,-2.337,-2.3338,-2.3368,-2.331,-2.3344,-2.3346,-2.3354,-2.3354,-2.3483,-2.3344,-2.3344,-2.3343,-2.3343,0,-2.3886,-2.3891,-2.3797,-2.3796,-2.38,-2.3727,-2.3734,-2.3695,-2.3652,-2.3642,-2.3573,-2.3566,-2.3485,-2.3469,-2.3422,-2.3422,-2.3414,-2.339,-2.3378,-2.3397,-2.3401,-2.3388,-2.3382,-2.3346,-2.3346,-2.3345,-2.3345,0,-2.4007,-2.3945,-2.3936,-2.3864,-2.3846,-2.3853,-2.3792,-2.3789,-2.3743,-2.3732,-2.3725,-2.3654,-2.3632,-2.3569,-2.3531,-2.3499,-2.3514,-2.3489,-2.353,-2.3522,-2.356,-2.3558,-2.3686,-2.3701,-2.3551,-2.3553,-2.3554,0,-2.4067,-2.407,-2.3999,-2.3987,-2.3958,-2.394,-2.3922,-2.3851,-2.3835,-2.3783,-2.3787,-2.3759,-2.3734,-2.3703,-2.3649,-2.3621,-2.3596,-2.3643,-2.3591,-2.3611,-2.3599,-2.36,-2.3601,-2.3654,-2.3656,-2.3658,-2.3659,0,-2.4182,-2.4151,-2.4127,-2.4093,-2.4073,-2.4043,-2.4009,-2.4004,-2.3925,-2.3911,-2.3888,-2.3868,-2.383,-2.3805,-2.3768,-2.3737,-2.3687,-2.3676,-2.3683,-2.3703,-2.3727,-2.3717,-2.3563,-2.3674,-2.3672,-2.3671,-2.367,-2.367,-2.4275,-2.4275,-2.4225,-2.4202,-2.4169,-2.4139,-2.4133,-2.4087,-2.4066,-2.403,-2.399,-2.3972,-2.3927,-2.3873,-2.3846,-2.3832,-2.3805,-2.3813,-2.3816,-2.382,-2.383,-2.3729,-2.3825,-2.3824,-2.3824,-2.3824,-2.3823,0,-2.4387,-2.4352,-2.4331,-2.4286,-2.4268,-2.4221,-2.4182,-2.4171,-2.4156,-2.4118,-2.4095,-2.407,-2.4046,-2.3991,-2.3962,-2.3963,-2.3939,-2.3958,-2.3958,-2.3952,-2.3855,-2.3853,-2.3978,-2.3978,-2.3978,-2.3977,-2.3977,-2.3977,-2.4443,-2.4441,-2.4405,-2.4387,-2.4352,-2.4334,-2.4316,-2.4289,-2.4259,-2.4235,-2.4214,-2.4178,-2.4134,-2.4103,-2.408,-2.4064,-2.4058,-2.4085,-2.4062,-2.3973,-2.3958,-2.3944,-2.3942,-2.4083,-2.4084,-2.416,-2.4161,-2.4161]},{"header":{"parameterUnit":"m.s-1","parameterCategory":1,"la1":30.2991,"la2":30.254,"lo1":-89.0895,"lo2":-89.0444,"dy":0.0017,"dx":0.0017,"nx":28,"ny":28,"refTime":"2023-08-22T21:00:00:Z","depth":0,"parameterNumber":3,"parameterNumberName":"V-component_of_WINDS"},"data":[0,0,0,0,0,0,0,0,0,0,0,0,0,0,0,0,0,0,0,0,0,0,0,0,0,0,0,0,0,0,0,0,0,0,0,0,0,0,0,0,0,0,0,0,0,0,0,0,0,0,0,0,0,0,0,0,0,0,2.5922,2.5922,0,2.5922,2.5922,2.5922,2.5961,2.5962,2.5963,2.5964,2.5958,2.5957,2.5956,0,0,0,0,0,0,0,0,0,0,0,0,0,2.595,2.5949,2.5922,2.5922,2.5922,2.5922,2.5922,2.5922,2.5961,2.5962,2.5963,2.5964,2.5959,2.5957,2.5956,0,0,0,0,0,0,0,0,0,0,0,0,0,2.5943,2.5949,2.5922,2.5941,2.5943,2.5922,2.5922,2.5922,2.596,2.5962,2.5963,2.5965,2.5959,2.5958,2.5956,2.5915,0,0,2.5951,2.595,0,0,0,0,0,0,0,0,2.5943,2.5942,2.5938,2.594,2.5942,2.5943,2.593,2.5919,2.596,2.5953,2.5964,2.5966,2.5952,2.5951,2.5947,2.5915,2.5914,2.5951,2.595,2.5949,2.5949,0,0,0,0,0,0,0,2.5944,2.5942,2.5922,2.5938,2.594,2.5948,2.5949,2.5928,2.5944,2.5954,2.5957,2.5957,2.5953,2.5949,2.5947,2.5914,2.5951,2.5949,2.5948,2.5948,2.5848,2.5846,0,0,0,0,0,0,2.5942,2.5942,2.5922,2.5922,2.5946,2.5947,2.5947,2.5941,2.5944,2.5946,2.5955,2.5959,2.5951,2.5949,2.5947,2.5898,2.5949,2.5948,2.5947,2.5849,2.5847,2.5846,0,0,0,0,0,0,2.5943,2.594,2.5922,2.5933,2.5931,2.5945,2.5937,2.594,2.5936,2.5945,2.5948,2.5949,2.5952,2.595,2.5923,2.5899,2.5947,2.5945,2.5851,2.5849,2.5847,2.5801,0,0,0,0,0,0,2.5943,2.594,2.5925,2.5932,2.593,2.5898,2.5936,2.5939,2.5934,2.5938,2.5939,2.5941,2.5953,2.5925,2.5921,2.5897,2.5944,2.5854,2.585,2.5847,2.5805,2.5797,2.5791,0,0,0,0,0,2.5944,2.5911,2.5924,2.5922,2.5913,2.5897,2.5896,2.5912,2.5932,2.5916,2.5923,2.5941,2.5903,2.5922,2.5918,2.5893,2.5855,2.5851,2.5848,2.5808,2.5799,2.5791,0,0,0,0,0,0,2.5899,2.5912,2.5927,2.5896,2.5895,2.5904,2.5885,2.5902,2.5894,2.5898,2.5916,2.5916,2.5886,2.5888,2.5909,2.5854,2.5882,2.5878,2.5853,2.5845,2.5838,2.5837,2.5943,0,0,0,0,0,2.5886,2.5873,2.5886,2.5857,2.5856,2.587,2.5864,2.5877,2.5876,2.5875,2.588,2.5877,2.5864,2.5855,2.5844,2.5806,2.5806,2.5787,2.5781,2.5775,2.5769,2.5748,2.574,2.5833,2.5833,2.5833,0,0,2.5857,2.5863,2.5854,2.5848,2.5849,2.5834,2.587,2.5853,2.5841,2.5872,2.5847,2.5851,2.5849,2.5816,2.5802,2.5816,2.5744,2.577,2.5766,2.5763,2.5744,2.5735,2.5727,2.5831,2.5831,2.5832,0,0,2.5797,2.5802,2.5778,2.5779,2.5781,2.5791,2.5786,2.5792,2.5796,2.5772,2.5795,2.5781,2.5759,2.5757,2.5753,2.5695,2.571,2.5691,2.5653,2.5632,2.5625,2.5619,2.5596,2.5587,2.5686,2.5686,2.5686,0,2.5761,2.5741,2.5763,2.5745,2.5741,2.5771,2.5746,2.5746,2.5743,2.5739,2.5756,2.573,2.5731,2.5697,2.5683,2.568,2.5672,2.5689,2.5625,2.5619,2.5613,2.5591,2.5582,2.5683,2.5683,2.5684,2.5684,0,2.5696,2.5682,2.5662,2.5661,2.5655,2.5634,2.5651,2.5642,2.5656,2.5664,2.5639,2.5642,2.5631,2.5625,2.5638,2.5594,2.5602,2.5622,2.565,2.5601,2.558,2.5572,2.5679,2.568,2.5681,2.5682,0,0,2.5604,2.5617,2.5609,2.5609,2.5615,2.5603,2.5583,2.5576,2.5567,2.5565,2.5547,2.5529,2.5548,2.5543,2.5556,2.5538,2.549,2.556,2.556,2.5544,2.5439,2.5422,2.5412,2.5502,2.5501,2.55,2.5438,0,2.5544,2.5512,2.5531,2.5495,2.5481,2.5511,2.5493,2.5494,2.5502,2.549,2.5498,2.5485,2.5511,2.5509,2.5493,2.5499,2.5468,2.5504,2.5483,2.5482,2.5479,2.5402,2.5383,2.5325,2.5431,2.5429,2.5429,0,2.5469,2.5466,2.5429,2.5437,2.5432,2.5416,2.5411,2.5401,2.5402,2.5409,2.5405,2.5422,2.5401,2.5433,2.5403,2.5427,2.542,2.5422,2.542,2.5416,2.5449,2.5392,2.5307,2.5297,2.5417,2.5418,2.5418,0,2.5403,2.539,2.5365,2.5365,2.5375,2.5362,2.5366,2.5369,2.5363,2.5358,2.5354,2.5347,2.5341,2.5335,2.5349,2.5371,2.5317,2.535,2.532,2.5319,2.5304,2.5304,2.5213,2.5305,2.5305,2.5305,2.5305,0,2.5333,2.5308,2.5336,2.532,2.5293,2.5317,2.5289,2.5295,2.5298,2.5283,2.531,2.5295,2.5317,2.5304,2.5315,2.5288,2.5286,2.5289,2.5292,2.5285,2.5284,2.5278,2.5281,2.5303,2.5303,2.5304,2.5304,0,2.5252,2.527,2.5245,2.5258,2.5261,2.524,2.525,2.5236,2.5247,2.5228,2.5225,2.524,2.5227,2.5242,2.5229,2.5237,2.5199,2.521,2.5199,2.5201,2.5169,2.517,2.5068,2.5055,2.5158,2.5157,2.5156,0,2.5204,2.5186,2.5198,2.5191,2.5193,2.5181,2.5176,2.5199,2.5192,2.5194,2.5178,2.5168,2.516,2.5136,2.5145,2.5136,2.5144,2.5109,2.5142,2.5136,2.514,2.5139,2.5137,2.5101,2.5099,2.5098,2.5098,0,2.5116,2.5127,2.5119,2.5115,2.5109,2.5106,2.5105,2.5097,2.5121,2.5112,2.51,2.5094,2.5082,2.507,2.5063,2.5065,2.5084,2.5088,2.508,2.5071,2.5064,2.5065,2.5177,2.5089,2.509,2.509,2.5091,2.5091,2.5048,2.5034,2.504,2.503,2.5033,2.5032,2.5019,2.5029,2.502,2.5013,2.5027,2.5011,2.5013,2.5006,2.5006,2.4993,2.5007,2.4996,2.4993,2.4989,2.4983,2.507,2.4992,2.4992,2.4992,2.4993,2.4993,0,2.4959,2.4966,2.4957,2.4956,2.4949,2.4972,2.4972,2.4963,2.4949,2.4951,2.4944,2.4929,2.4918,2.4928,2.4918,2.4905,2.4914,2.4902,2.4901,2.4901,2.4972,2.4978,2.4895,2.4895,2.4895,2.4895,2.4895,2.4895,2.4912,2.4888,2.4899,2.4876,2.4882,2.4868,2.4866,2.4864,2.4866,2.4849,2.4841,2.4848,2.4853,2.4844,2.4835,2.4838,2.4832,2.4816,2.4821,2.4887,2.4896,2.4905,2.4911,2.4815,2.4815,2.4752,2.4751,2.475]}]]